Regional Weather Roundup
Issued by NWS

Home | Current Version | Previous Version | Graphics & Text | Print | Product List | Glossary On
Versions: 1 2 3 4 5 6 7 8 9 10 11 12 13 14 15 16 17 18 19 20 21 22 23 24 25 26 27 28 29 30 31 32 33 34 35 36 37 38 39 40 41 42 43 44 45 46 47 48
000
ASUS45 KBOU 200907
RWRCO

WEATHER ROUNDUP FOR COLORADO
NATIONAL WEATHER SERVICE DENVER/BOULDER CO
300 AM MDT SAT SEP 20 2014

NOTE: "FAIR" INDICATES FEW OR NO CLOUDS BELOW 12000 FEET WITH NO
SIGNIFICANT WEATHER AND/OR OBSTRUCTIONS TO VISIBILITY.

COZ001>005-013-030-031-201000-
...NORTHWEST COLORADO...

CITY           SKY/WX    TMP DP  RH WIND       PRES   REMARKS
CRAIG          CLEAR     45  42  89 SE3       30.24S
HAYDEN         CLEAR     50  39  66 E6        30.25S
MEEKER         CLEAR     50  43  77 SE6       30.25R
MOUNT WERNER   NOT AVBL
STEAMBOAT SPGS CLEAR     48  43  81 CALM      30.27R
WALDEN         CLEAR     39  34  81 SE10      30.33S
$$

COZ006>008-011-201000-
...WEST CENTRAL VALLEYS...

CITY           SKY/WX    TMP DP  RH WIND       PRES   REMARKS
GRAND JUNCTION CLEAR     64  44  48 E3        30.08R
MONTROSE       CLEAR     59  44  57 SE8       30.18R
EAGLE          CLEAR     52  43  71 SE3       30.28R
RIFLE          CLEAR     54  45  71 CALM      30.17R
DELTA          CLEAR     60  42  52 E5        30.13R
NUCLA          CLEAR     57  43  58 SE8       30.19S
$$

COZ017>023-064>068-201000-
...SOUTHWEST COLORADO...

CITY           SKY/WX    TMP DP  RH WIND       PRES   REMARKS
DURANGO        CLEAR     54  43  66 N6        30.18R
CORTEZ         CLEAR     51  46  83 E5        30.14S
PAGOSA SPRINGS CLEAR     50  42  74 CALM      30.26S
TELLURIDE      NOT AVBL
WOLF CREEK PAS CLEAR     45  32  61 NE13      30.57S
$$

COZ009-010-012-014-032>034-037-058>063-201000-
...CENTRAL COLORADO...

CITY           SKY/WX    TMP DP  RH WIND       PRES   REMARKS
ASPEN          CLEAR     50  40  68 S6        30.31S
BUENA VISTA    CLEAR     56  37  49 NW16      30.31F
COPPER MTN     PTCLDY    50  36  57 W9        30.60S
BERTHOUD PASS  FAIR      39  37  93 NW14      30.63S
COTTONWOOD PAS CLEAR     59  34  38 W13       30.44S
GUNNISON       CLEAR     45  36  70 CALM      30.34R
KREMMLING      CLEAR     45  36  70 CALM      30.32S
LEADVILLE      CLEAR     39  33  79 CALM      30.45R
SALIDA         CLEAR     52  39  60 W6        30.37S
SUNLIGHT       CLEAR     50  39  66 NE3       30.53S
WILKERSON PASS NOT AVBL
$$

COZ069>075-201000-
...SAN LUIS VALLEY/SANGRE DE CRISTO MOUNTAINS...

CITY           SKY/WX    TMP DP  RH WIND       PRES   REMARKS
ALAMOSA        PTCLDY    47  35  63 CALM      30.26R
LA VETA PASS   NOT AVBL
SAGUACHE       NOT AVBL
$$

COZ035-036-038>040-201000-
...NORTHERN COLORADO FRONT RANGE...

CITY           SKY/WX    TMP DP  RH WIND       PRES   REMARKS
DENVER INTL AP PTCLDY    61  46  57 SW9       30.13R
DMNS CITY PARK   N/A     63  49  60 SW7       30.12S
AURORA         PTCLDY    60  46  59 S6        30.15R
FRONT RANGE AP NOT AVBL
ERIE MUNI ARPT CLEAR     62  47  57 CALM      30.11R
BOULDER MUN AP CLEAR     68  45  42 SW7       30.11R
CENTENNIAL     PTCLDY    58  46  64 SW3       30.16R
BROOMFIELD     CLEAR     64  45  48 SW3       30.15R
FORT COLLINS   CLEAR     59  48  67 N3        30.11S
LONGMONT       CLEAR     63  47  56 W6        30.11S
$$

COZ041-046-047-076>085-087-088-201000-
...PIKES PEAK/PALMER DIVIDE AND SOUTHERN FOOTHILLS...

CITY           SKY/WX    TMP DP  RH WIND       PRES   REMARKS
COLO. SPRINGS  CLEAR     63  44  50 NW10      30.18R
A. F. ACADEMY  CLEAR     56  43  63 N10       30.20S
ELLICOTT       NOT AVBL
FALCON         CLEAR     59  42  54 NW6       30.22R
FORT CARSON    CLEAR     62  44  51 NW9       30.13S
LIMON          MOCLDY    52  47  83 NW6       30.10R
MONUMENT HILL  CLEAR     50  41  71 W8        30.23S
TRINIDAD       CLEAR     63  55  75 W18       30.10R
$$

COZ042>045-048>051-090-091-201000-
...NORTHEAST COLORADO...

CITY           SKY/WX    TMP DP  RH WIND       PRES   REMARKS
GREELEY ARPT   PTCLDY    57  46  67 N10       30.10R
AKRON          PTCLDY    59  53  80 NW16      30.05R
BURLINGTON     CLEAR     62  58  86 SW9       30.00S
WRAY           PTCLDY    63  51  65 W3        29.96R
STERLING       PTCLDY    59  55  88 W10       30.01S
HOLYOKE        PTCLDY    64  54  68 NW8       29.96S
FORT MORGAN    PTCLDY    61  52  73 W9        30.06S
$$

COZ086-089-092>099-201000-
...SOUTHEAST COLORADO...

CITY           SKY/WX    TMP DP  RH WIND       PRES   REMARKS
PUEBLO         CLEAR     69  43  38 N17       30.04S
LA JUNTA       CLEAR     56  53  90 N9        30.01R
LAMAR          CLEAR     63  60  90 S3        29.96F
SPRINGFIELD      N/A     63  62  97 S13       30.02S
$$


USA.gov is the U.S. government's official web portal to all federal, state and local government web resources and services.